User: anonymous   Login
Location: Lone Wolf Observatory
(41.0360°N, 89.2260°W)
Time: 14:12:34
(UTC-05:00)
Language:

Cosmos 1378 Rocket - Orbit

View from above orbital plane
View from above orbital plane
View from above satellite
View from above satellite

Ground track
Ground track

The orbit data is extracted from the following two-line orbital elements,

1 13272U 82059B   14295.46963323  .00000700  00000-0  80780-4 0  8922
2 13272 082.5097 329.1892 0020201 078.5749 281.7734 14.84099284748186
Epoch (UTC): 22 October 2014 11:16:16
Eccentricity: 0.0020201
inclination: 82.5097°
perigee height: 602 km
apogee height: 630 km
right ascension of ascending node: 329.1892°
argument of perigee: 78.5749°
revolutions per day: 14.84099284
mean anomaly at epoch: 281.7734°
orbit number at epoch: 74818

The dashed part of the orbit path shows where the satellite is in the earth's shadow,  

DLR